AirNav  
 
 703 users online  

FL67 Evans Properties Inc Airport
Fort Pierce, Florida, USA

GOING TO FORT PIERCE?


FAA INFORMATION EFFECTIVE 01 FEBRUARY 2018

Location

FAA Identifier: FL67
Lat/Long: 27-16-40.1610N / 080-35-09.2000W
27-16.669350N / 080-35.153333W
27.2778225 / -80.5858889
(estimated)
Elevation: 24 ft. / 7 m (estimated)
Variation: 03W (1985)
From city: 17 miles SW of FORT PIERCE, FL
Time zone: UTC -5 (UTC -4 during Daylight Saving Time)
Zip code: 34987

Airport Operations

Airport use: Private use. Permission required prior to landing
Control tower: no
ARTCC: MIAMI CENTER
FSS: MIAMI FLIGHT SERVICE STATION
Attendance: UNATNDD
Wind indicator: yes
Segmented circle: no

Airport Communications

WX AWOS-3 at OBE (14 nm W): 118.675 (863-467-1148)
WX ASOS at FPR (17 nm NE): PHONE 772-489-4281

Nearby radio navigation aids

VOR radial/distance  VOR name  Freq  Var
TRVr199/24.6TREASURE VORTAC117.3007W
PHKr011/30.2PAHOKEE VOR/DME115.4000E

 
NDB name  Hdg/Dist  Freq  Var  ID
FORT PIERCE229/16.927507WFPR ..-. .--. .-.
UNITED334/25.940505WUTX ..- - -..-

Airport Services

Airframe service: NONE
Powerplant service: NONE

Runway Information

Runway 9/27

Dimensions: 3000 x 36 ft. / 914 x 11 m
Surface: asphalt
RUNWAY 9  RUNWAY 27
Traffic pattern: leftleft

Airport Ownership and Management from official FAA records

Ownership: Privately-owned
Owner: EVANS PROPERTIES INC
660 BEACHLAND BLVD SUITE 301
VERO BEACH, FL 32963
Phone 561-234-2410
RONALD L. EDWARDS, PRESIDENT.
Manager: PETER MC CLURE
10410 BLUEFIELD ROAD
OKEECHOBEE, FL 34972
Phone 863-763-4869

Instrument Procedures

There are no published instrument procedures at FL67.

Some nearby airports with instrument procedures:

KOBE - Okeechobee County Airport (14 nm W)
KFPR - Treasure Coast International Airport (17 nm NE)
KSUA - Witham Field Airport (20 nm E)
KVRB - Vero Beach Regional Airport (24 nm N)
06FA - William P Gwinn Airport (26 nm SE)
 
Loc | Ops | Rwys | IFR | FBO | Links
Com | Nav | Svcs | Stats | Notes

Reliance Aviation
AirBoss

 
Area around FL67 (Evans Properties Inc Airport)
 
Road maps at: MapQuest Bing Google
 
Aerial photo
No photo
 
Sectional chart

 
Airport distance calculator
Flying to Evans Properties Inc Airport? Find the distance to fly.

From to FL67

Sunrise and sunset
Times for 24-Feb-2018
 Local
(UTC-5)
 Zulu
(UTC)
Morning civil twilight06:2911:29
Sunrise06:5211:52
Sunset18:1923:19
Evening civil twilight18:4223:42

Current date and time
Zulu (UTC)  25-Feb-2018 04:12:20
Local (UTC-5)  24-Feb-2018 23:12:20
 
METAR
KOBE 
14nm W 
250355Z AUTO 14005KT 10SM CLR 20/18 A3016 RMK AO2
KFPR 
17nm NE 
250353Z AUTO 13009KT 10SM CLR 23/21 A3017 RMK AO2 SLP214 T02280206
KSUA 
20nm E 
250355Z AUTO 14005KT 10SM CLR 22/20 A3018 RMK AO2
KVRB 
24nm N 
250353Z AUTO 13009KT 10SM CLR 23/20 A3017 RMK AO2 SLP215 T02280200
TAF
KFPR 
17nm NE 
241740Z 2418/2518 12012KT P6SM SCT040 FM250000 13007KT P6SM FEW025 FM251400 15008KT P6SM SCT030
KSUA 
20nm E 
241740Z 2418/2518 12013G20KT P6SM SCT040 FM250000 12007KT P6SM FEW025 FM250900 13005KT P6SM VCSH SCT020 FM251400 15009KT P6SM SCT030
NOTAMs
Click for the latest NOTAMs
NOTAMs are issued by the DoD/FAA and will open in a separate window not controlled by AirNav.

 

 
 

Would you like to see your business listed on this page?

 If your business provides an interesting product or service to pilots, flight crews, aircraft, or users of the Evans Properties Inc Airport, you should consider listing it here.  To start the listing process, click on the button below
 
Add a business
 

Other Pages about Evans Properties Inc Airport

Update a link
 
Copyright © AirNav, LLC. All rights reserved. Privacy Policy  Contact